Find Starlink 30539

NORAD ID: 58004 Int'l Des: 2023-153 Owner: SPXS Country: US Constellation: starlink operational
LEOCIRCULAR

Current View

Loading 3D Globe...

About Starlink 30539

Starlink 30539 (NORAD 58004) is a starlink constellation satellite (v2 mini) launched Oct 5, 2023 by SPXS of US. It operates in LEO, CIRCULAR orbit with a mass of 730.00 kg.

About Starlink 30539

Description loading...

Upcoming Passes

Passes for default location (London). Set your location on the main map for personalized predictions.

Altitude History

Loading altitude history...

Two-Line Element Set

1 58004U 23153P 26167.45137174 .00001947 00000-0 80220-4 0 9992
2 58004 43.0051 229.0519 0001487 278.0911 81.9772 15.27590969149997
Epoch: Jun 16, 2026 • Age: 35 hours

Current Status

Altitude 487.2 km
Velocity 7.62 km/s
Sub-Earth Point -20.02°S, 176.68°W
Launch Date Oct 5, 2023
Age 2.6 years
Type internet

Technical Details

Classification Payload
Mass 730.00 kg
Dry Mass 700.00 kg
Total Mass 730.00 kg
Length 0.30 m
Diameter 4.10 m
Span 29.00 m
Shape Box + pan
Manufacturer SPXS
Bus Type Starlink V2M
Phase Status In Orbit
Owner/State SPXS/US

Most Searched